{"data":{"norad_id":47722,"intl_designator":"2021-017A","name":"STARLINK-2068","alt_names":[],"object_type":"PAYLOAD","status":"ACTIVE","operator":null,"country":"US","launch_date":"2021-03-04","launch_site_code":"AFETR","launch_vehicle":null,"mission":null,"orbit_class":"UNKNOWN","rcs_meters":null,"size_class":null,"mass_kg":null,"dimensions":null,"purposes":["comms"],"wikipedia_slug":null,"has_3d_model":false,"image_url":null,"decayed_at":null,"tle_current":{"epoch":"2026-09-19T22:53:12.131232Z","epoch_age_seconds":72880,"freshness":"FRESH","line1":"1 47722U 21017A   26262.95361263  .00000270  00000+0  20453-4 0  9992","line2":"2 47722  53.1621   6.9454 0001439  57.0864 303.0275 15.31705360307840","mean_motion":15.3170536,"eccentricity":0.0001439,"inclination_deg":53.1621,"raan_deg":6.9454,"arg_perigee_deg":57.0864,"mean_anomaly_deg":303.0275,"bstar":2.0453e-5,"rev_number":30784,"period_min":94.012858974392,"perigee_km":469.73846629075,"apogee_km":471.70956849156,"semimajor_km":6848.8610173912,"source":"CELESTRAK","updated_at":"2026-09-20T09:00:38.599213Z"}}}